Time,TemperatureF,DewpointF,PressureIn,WindDirection,WindDirectionDegrees,WindSpeedMPH,WindSpeedGustMPH,Humidity,HourlyPrecipIn,Conditions,Clouds,dailyrainin,SoftwareType,DateUTC
2013-06-05 00:00:00,64.1,60.5,30.02,SE,136,1.0,1.0,88,0.00,,,0.00,Wunderground v.1.15,2013-06-05 04:00:00,
2013-06-05 00:05:00,64.1,60.5,30.02,WSW,238,1.0,1.0,88,0.00,,,0.00,Wunderground v.1.15,2013-06-05 04:05:00,
2013-06-05 00:10:00,64.0,60.4,30.02,SE,134,1.0,1.0,88,0.00,,,0.00,Wunderground v.1.15,2013-06-05 04:10:00,
2013-06-05 00:15:00,64.0,60.4,30.02,South,188,1.0,1.0,88,0.00,,,0.00,Wunderground v.1.15,2013-06-05 04:15:00,
2013-06-05 00:20:00,63.9,60.3,30.02,South,173,1.0,1.0,88,0.00,,,0.00,Wunderground v.1.15,2013-06-05 04:20:00,
2013-06-05 00:25:00,63.8,60.2,30.02,SW,221,0.0,1.0,88,0.00,,,0.00,Wunderground v.1.15,2013-06-05 04:25:00,
2013-06-05 00:35:00,63.7,60.4,30.01,SW,216,0.0,4.0,89,0.00,,,0.00,Wunderground v.1.15,2013-06-05 04:35:00,
2013-06-05 00:40:00,63.7,60.4,30.01,ESE,104,1.0,1.0,89,0.00,,,0.00,Wunderground v.1.15,2013-06-05 04:40:00,
2013-06-05 00:45:00,63.6,60.3,30.01,ESE,107,1.0,1.0,89,0.00,,,0.00,Wunderground v.1.15,2013-06-05 04:45:00,
2013-06-05 00:50:00,63.8,60.5,30.01,NE,49,1.0,1.0,89,0.00,,,0.00,Wunderground v.1.15,2013-06-05 04:50:00,
2013-06-05 00:55:00,64.0,60.4,30.01,East,86,1.0,2.0,88,0.00,,,0.00,Wunderground v.1.15,2013-06-05 04:55:00,
2013-06-05 01:00:00,64.0,60.4,30.01,East,99,1.0,1.0,88,0.00,,,0.00,Wunderground v.1.15,2013-06-05 05:00:00,
2013-06-05 01:05:00,64.1,60.5,30.01,NE,53,1.0,2.0,88,0.00,,,0.00,Wunderground v.1.15,2013-06-05 05:05:00,
2013-06-05 01:10:00,64.0,60.4,30.01,East,99,1.0,1.0,88,0.00,,,0.00,Wunderground v.1.15,2013-06-05 05:10:00,
2013-06-05 01:20:00,63.9,60.6,30.02,SE,139,1.0,2.0,89,0.00,,,0.00,Wunderground v.1.15,2013-06-05 05:20:00,
2013-06-05 01:25:00,63.9,60.6,30.02,SE,133,1.0,2.0,89,0.00,,,0.00,Wunderground v.1.15,2013-06-05 05:25:00,
2013-06-05 01:30:00,63.8,60.5,30.02,East,97,1.0,1.0,89,0.00,,,0.00,Wunderground v.1.15,2013-06-05 05:30:00,
2013-06-05 01:35:00,63.7,60.4,30.01,ESE,115,1.0,1.0,89,0.00,,,0.00,Wunderground v.1.15,2013-06-05 05:35:00,
2013-06-05 01:40:00,63.5,60.2,30.02,ESE,110,1.0,1.0,89,0.00,,,0.00,Wunderground v.1.15,2013-06-05 05:40:00,
2013-06-05 01:45:00,63.4,60.4,30.02,SSE,157,0.0,1.0,90,0.00,,,0.00,Wunderground v.1.15,2013-06-05 05:45:00,
2013-06-05 01:50:00,63.3,60.3,30.02,SSW,198,0.0,0.0,90,0.00,,,0.00,Wunderground v.1.15,2013-06-05 05:50:00,
2013-06-05 01:55:00,63.2,60.2,30.02,SSE,156,1.0,1.0,90,0.00,,,0.00,Wunderground v.1.15,2013-06-05 05:55:00,
2013-06-05 02:00:00,63.2,60.2,30.02,SSE,149,2.0,2.0,90,0.00,,,0.00,Wunderground v.1.15,2013-06-05 06:00:00,
2013-06-05 02:05:00,63.2,60.5,30.02,SSE,149,2.0,3.0,91,0.00,,,0.00,Wunderground v.1.15,2013-06-05 06:05:00,
2013-06-05 02:10:00,63.3,60.6,30.02,SE,141,1.0,2.0,91,0.00,,,0.00,Wunderground v.1.15,2013-06-05 06:10:00,
2013-06-05 02:15:00,63.4,60.7,30.02,South,180,2.0,2.0,91,0.00,,,0.00,Wunderground v.1.15,2013-06-05 06:15:00,
2013-06-05 02:20:00,63.5,60.8,30.02,SSE,159,1.0,1.0,91,0.00,,,0.00,Wunderground v.1.15,2013-06-05 06:20:00,
2013-06-05 02:25:00,63.6,60.6,30.02,SSE,161,1.0,1.0,90,0.00,,,0.00,Wunderground v.1.15,2013-06-05 06:25:00,
2013-06-05 02:30:00,63.6,60.6,30.02,ESE,110,1.0,1.0,90,0.00,,,0.00,Wunderground v.1.15,2013-06-05 06:30:00,
2013-06-05 02:35:00,63.6,60.6,30.01,SSE,148,1.0,1.0,90,0.00,,,0.00,Wunderground v.1.15,2013-06-05 06:35:00,
2013-06-05 02:40:00,63.4,60.7,30.01,SSE,165,1.0,1.0,91,0.00,,,0.00,Wunderground v.1.15,2013-06-05 06:40:00,
2013-06-05 02:45:00,63.3,60.6,30.01,SSE,163,1.0,1.0,91,0.00,,,0.00,Wunderground v.1.15,2013-06-05 06:45:00,
2013-06-05 02:50:00,63.3,60.6,30.00,SSE,157,1.0,5.0,91,0.00,,,0.00,Wunderground v.1.15,2013-06-05 06:50:00,
2013-06-05 03:00:00,63.2,60.5,30.00,ESE,122,1.0,1.0,91,0.00,,,0.00,Wunderground v.1.15,2013-06-05 07:00:00,
2013-06-05 03:05:00,63.0,60.3,30.00,ESE,114,1.0,1.0,91,0.00,,,0.00,Wunderground v.1.15,2013-06-05 07:05:00,
2013-06-05 03:10:00,62.9,60.2,30.00,SSE,165,1.0,2.0,91,0.00,,,0.00,Wunderground v.1.15,2013-06-05 07:10:00,
2013-06-05 03:15:00,62.9,60.2,30.00,ESE,108,1.0,2.0,91,0.00,,,0.00,Wunderground v.1.15,2013-06-05 07:15:00,
2013-06-05 03:20:00,62.9,60.5,30.00,SSE,156,1.0,2.0,92,0.00,,,0.00,Wunderground v.1.15,2013-06-05 07:20:00,
2013-06-05 03:25:00,62.8,60.4,30.00,South,177,1.0,2.0,92,0.00,,,0.00,Wunderground v.1.15,2013-06-05 07:25:00,
2013-06-05 03:30:00,62.8,60.4,30.00,SE,145,1.0,1.0,92,0.00,,,0.00,Wunderground v.1.15,2013-06-05 07:30:00,
2013-06-05 03:35:00,62.8,60.4,29.99,SSE,151,0.0,1.0,92,0.00,,,0.00,Wunderground v.1.15,2013-06-05 07:35:00,
2013-06-05 03:40:00,62.8,60.4,30.00,SW,226,1.0,1.0,92,0.00,,,0.00,Wunderground v.1.15,2013-06-05 07:40:00,
2013-06-05 03:45:00,62.8,60.4,30.00,SSE,163,0.0,2.0,92,0.00,,,0.00,Wunderground v.1.15,2013-06-05 07:45:00,
2013-06-05 03:50:00,62.7,60.3,30.00,SE,146,0.0,0.0,92,0.00,,,0.00,Wunderground v.1.15,2013-06-05 07:50:00,
2013-06-05 03:55:00,62.6,60.5,30.00,SE,132,1.0,1.0,93,0.00,,,0.00,Wunderground v.1.15,2013-06-05 07:55:00,
2013-06-05 04:00:00,62.7,60.6,30.00,South,169,1.0,1.0,93,0.00,,,0.00,Wunderground v.1.15,2013-06-05 08:00:00,
2013-06-05 04:05:00,62.8,60.7,30.00,SSW,204,1.0,1.0,93,0.00,,,0.00,Wunderground v.1.15,2013-06-05 08:05:00,
2013-06-05 04:10:00,62.9,60.8,30.00,South,173,1.0,1.0,93,0.00,,,0.00,Wunderground v.1.15,2013-06-05 08:10:00,
2013-06-05 04:15:00,63.0,60.9,30.00,SSW,200,1.0,2.0,93,0.00,,,0.00,Wunderground v.1.15,2013-06-05 08:15:00,
2013-06-05 04:25:00,63.2,60.8,30.01,SSE,150,1.0,1.0,92,0.00,,,0.00,Wunderground v.1.15,2013-06-05 08:25:00,
2013-06-05 04:30:00,63.2,60.8,30.00,ENE,76,0.0,0.0,92,0.00,,,0.00,Wunderground v.1.15,2013-06-05 08:30:00,
2013-06-05 04:35:00,63.2,60.8,30.00,WSW,243,0.0,0.0,92,0.00,,,0.00,Wunderground v.1.15,2013-06-05 08:35:00,
2013-06-05 04:45:00,63.1,60.7,30.00,WSW,238,0.0,0.0,92,0.00,,,0.00,Wunderground v.1.15,2013-06-05 08:45:00,
2013-06-05 04:55:00,62.8,60.4,30.01,WNW,282,0.0,0.0,92,0.00,,,0.00,Wunderground v.1.15,2013-06-05 08:55:00,
2013-06-05 05:00:00,62.7,60.6,30.02,WNW,282,0.0,0.0,93,0.00,,,0.00,Wunderground v.1.15,2013-06-05 09:00:00,
2013-06-05 05:05:00,62.7,60.6,30.02,SSW,204,0.0,1.0,93,0.00,,,0.00,Wunderground v.1.15,2013-06-05 09:05:00,
2013-06-05 05:10:00,62.7,60.6,30.01,SSW,204,0.0,0.0,93,0.00,,,0.00,Wunderground v.1.15,2013-06-05 09:10:00,
2013-06-05 05:15:00,62.6,60.5,30.01,SSW,204,0.0,0.0,93,0.00,,,0.00,Wunderground v.1.15,2013-06-05 09:15:00,
2013-06-05 05:20:00,62.5,60.4,30.01,SE,146,0.0,0.0,93,0.00,,,0.00,Wunderground v.1.15,2013-06-05 09:20:00,
2013-06-05 05:25:00,62.5,60.7,30.01,ESE,122,0.0,1.0,94,0.00,,,0.00,Wunderground v.1.15,2013-06-05 09:25:00,
2013-06-05 05:30:00,62.5,60.7,30.01,SE,146,1.0,1.0,94,0.00,,,0.00,Wunderground v.1.15,2013-06-05 09:30:00,
2013-06-05 05:40:00,62.5,60.7,30.01,SE,146,0.0,0.0,94,0.00,,,0.00,Wunderground v.1.15,2013-06-05 09:40:00,
2013-06-05 05:45:00,62.5,60.7,30.01,SSE,148,0.0,0.0,94,0.00,,,0.00,Wunderground v.1.15,2013-06-05 09:45:00,
2013-06-05 05:50:00,62.5,60.7,30.01,SSE,148,0.0,0.0,94,0.00,,,0.00,Wunderground v.1.15,2013-06-05 09:50:00,
2013-06-05 05:55:00,62.6,60.8,30.01,SE,146,0.0,0.0,94,0.00,,,0.00,Wunderground v.1.15,2013-06-05 09:55:00,
2013-06-05 06:00:00,62.6,60.8,30.01,SE,146,0.0,0.0,94,0.00,,,0.00,Wunderground v.1.15,2013-06-05 10:00:00,
2013-06-05 06:05:00,62.6,60.5,30.01,SE,146,0.0,0.0,93,0.00,,,0.00,Wunderground v.1.15,2013-06-05 10:05:00,
2013-06-05 06:10:00,62.5,60.4,30.01,SE,146,0.0,0.0,93,0.00,,,0.00,Wunderground v.1.15,2013-06-05 10:10:00,
2013-06-05 06:15:00,62.5,60.7,30.01,SE,142,0.0,0.0,94,0.00,,,0.00,Wunderground v.1.15,2013-06-05 10:15:00,
2013-06-05 06:20:00,62.5,60.4,30.01,SE,142,0.0,0.0,93,0.00,,,0.00,Wunderground v.1.15,2013-06-05 10:20:00,
2013-06-05 06:25:00,62.5,60.4,30.02,South,177,0.0,0.0,93,0.00,,,0.00,Wunderground v.1.15,2013-06-05 10:25:00,
2013-06-05 06:30:00,62.6,60.5,30.02,South,178,0.0,0.0,93,0.00,,,0.00,Wunderground v.1.15,2013-06-05 10:30:00,
2013-06-05 06:35:00,62.6,60.5,30.03,ESE,113,0.0,0.0,93,0.00,,,0.00,Wunderground v.1.15,2013-06-05 10:35:00,
2013-06-05 06:40:00,62.7,60.6,30.02,SE,124,0.0,0.0,93,0.00,,,0.00,Wunderground v.1.15,2013-06-05 10:40:00,
2013-06-05 06:45:00,62.7,60.6,30.02,SSE,158,0.0,0.0,93,0.00,,,0.00,Wunderground v.1.15,2013-06-05 10:45:00,
2013-06-05 06:50:00,62.8,60.7,30.02,South,176,0.0,1.0,93,0.00,,,0.00,Wunderground v.1.15,2013-06-05 10:50:00,
2013-06-05 06:55:00,62.9,60.8,30.02,South,176,0.0,1.0,93,0.00,,,0.00,Wunderground v.1.15,2013-06-05 10:55:00,
2013-06-05 07:00:00,62.9,60.8,30.02,South,169,0.0,0.0,93,0.00,,,0.00,Wunderground v.1.15,2013-06-05 11:00:00,
2013-06-05 07:05:00,63.0,60.6,30.02,East,79,0.0,1.0,92,0.00,,,0.00,Wunderground v.1.15,2013-06-05 11:05:00,
2013-06-05 07:10:00,63.1,60.7,30.03,SSW,205,0.0,0.0,92,0.00,,,0.00,Wunderground v.1.15,2013-06-05 11:10:00,
2013-06-05 07:15:00,63.2,60.8,30.03,SE,135,0.0,0.0,92,0.00,,,0.00,Wunderground v.1.15,2013-06-05 11:15:00,
2013-06-05 07:20:00,63.2,60.8,30.03,East,98,0.0,0.0,92,0.00,,,0.00,Wunderground v.1.15,2013-06-05 11:20:00,
2013-06-05 07:25:00,63.2,60.8,30.03,SW,217,0.0,0.0,92,0.00,,,0.00,Wunderground v.1.15,2013-06-05 11:25:00,
2013-06-05 07:30:00,63.3,60.9,30.03,SE,141,0.0,0.0,92,0.00,,,0.00,Wunderground v.1.15,2013-06-05 11:30:00,
2013-06-05 07:40:00,63.6,61.2,30.03,ESE,113,0.0,0.0,92,0.00,,,0.00,Wunderground v.1.15,2013-06-05 11:40:00,
2013-06-05 07:45:00,63.7,61.3,30.03,WSW,256,0.0,1.0,92,0.00,,,0.00,Wunderground v.1.15,2013-06-05 11:45:00,
2013-06-05 07:50:00,63.8,61.1,30.03,SSE,152,0.0,0.0,91,0.00,,,0.00,Wunderground v.1.15,2013-06-05 11:50:00,
2013-06-05 07:55:00,63.9,61.2,30.04,SW,228,0.0,0.0,91,0.00,,,0.00,Wunderground v.1.15,2013-06-05 11:55:00,
2013-06-05 08:00:00,64.0,61.3,30.04,SSE,162,0.0,1.0,91,0.00,,,0.00,Wunderground v.1.15,2013-06-05 12:00:00,
2013-06-05 08:05:00,64.1,61.4,30.04,SE,138,0.0,1.0,91,0.00,,,0.00,Wunderground v.1.15,2013-06-05 12:05:00,
2013-06-05 08:15:00,64.1,61.4,30.04,South,173,1.0,4.0,91,0.00,,,0.00,Wunderground v.1.15,2013-06-05 12:15:00,
2013-06-05 08:20:00,64.1,61.4,30.04,SE,125,1.0,1.0,91,0.00,,,0.00,Wunderground v.1.15,2013-06-05 12:20:00,
2013-06-05 08:25:00,64.0,61.3,30.03,SE,142,2.0,2.0,91,0.00,,,0.00,Wunderground v.1.15,2013-06-05 12:25:00,
2013-06-05 08:30:00,63.9,61.2,30.03,SE,133,2.0,2.0,91,0.00,,,0.00,Wunderground v.1.15,2013-06-05 12:30:00,
2013-06-05 08:35:00,63.9,61.2,30.03,SSE,162,1.0,2.0,91,0.00,,,0.00,Wunderground v.1.15,2013-06-05 12:35:00,
2013-06-05 08:40:00,64.0,61.3,30.03,SSW,200,1.0,1.0,91,0.00,,,0.00,Wunderground v.1.15,2013-06-05 12:40:00,
2013-06-05 08:45:00,64.4,61.7,30.03,ENE,70,1.0,1.0,91,0.00,,,0.00,Wunderground v.1.15,2013-06-05 12:45:00,
2013-06-05 08:50:00,64.8,62.1,30.03,SW,218,1.0,1.0,91,0.00,,,0.00,Wunderground v.1.15,2013-06-05 12:50:00,
2013-06-05 08:55:00,65.0,62.0,30.03,South,183,1.0,1.0,90,0.00,,,0.00,Wunderground v.1.15,2013-06-05 12:55:00,
2013-06-05 09:05:00,65.5,62.5,30.04,ESE,123,0.0,1.0,90,0.00,,,0.00,Wunderground v.1.15,2013-06-05 13:05:00,
2013-06-05 09:15:00,66.2,62.9,30.04,SSE,165,0.0,0.0,89,0.00,,,0.00,Wunderground v.1.15,2013-06-05 13:15:00,
2013-06-05 09:20:00,66.5,62.8,30.04,SE,146,0.0,0.0,88,0.00,,,0.00,Wunderground v.1.15,2013-06-05 13:20:00,
2013-06-05 09:25:00,67.0,63.0,30.04,SSE,165,1.0,2.0,87,0.00,,,0.00,Wunderground v.1.15,2013-06-05 13:25:00,
2013-06-05 09:30:00,67.4,63.4,30.04,South,184,1.0,1.0,87,0.00,,,0.00,Wunderground v.1.15,2013-06-05 13:30:00,
2013-06-05 09:35:00,67.6,63.3,30.03,SSW,192,0.0,1.0,86,0.00,,,0.00,Wunderground v.1.15,2013-06-05 13:35:00,
2013-06-05 09:40:00,67.7,63.4,30.04,SW,222,0.0,0.0,86,0.00,,,0.00,Wunderground v.1.15,2013-06-05 13:40:00,
2013-06-05 09:45:00,67.5,62.8,30.04,SSE,158,0.0,0.0,85,0.00,,,0.00,Wunderground v.1.15,2013-06-05 13:45:00,
2013-06-05 09:50:00,67.5,62.8,30.04,South,190,0.0,2.0,85,0.00,,,0.00,Wunderground v.1.15,2013-06-05 13:50:00,
2013-06-05 09:55:00,67.5,63.2,30.04,SSE,163,0.0,2.0,86,0.00,,,0.00,Wunderground v.1.15,2013-06-05 13:55:00,
2013-06-05 10:00:00,67.5,63.2,30.04,SE,143,1.0,1.0,86,0.00,,,0.00,Wunderground v.1.15,2013-06-05 14:00:00,
2013-06-05 10:05:00,67.4,62.7,30.03,SSE,159,1.0,1.0,85,0.00,,,0.00,Wunderground v.1.15,2013-06-05 14:05:00,
2013-06-05 10:10:00,67.3,63.0,30.03,South,169,1.0,2.0,86,0.00,,,0.00,Wunderground v.1.15,2013-06-05 14:10:00,
2013-06-05 10:20:00,67.6,62.9,30.03,SW,224,2.0,2.0,85,0.00,,,0.00,Wunderground v.1.15,2013-06-05 14:20:00,
2013-06-05 10:25:00,68.0,63.7,30.03,SSE,166,1.0,2.0,86,0.00,,,0.00,Wunderground v.1.15,2013-06-05 14:25:00,
2013-06-05 10:30:00,68.1,63.1,30.03,SE,139,1.0,1.0,84,0.00,,,0.00,Wunderground v.1.15,2013-06-05 14:30:00,
2013-06-05 10:35:00,68.1,63.4,30.03,SE,134,2.0,2.0,85,0.00,,,0.00,Wunderground v.1.15,2013-06-05 14:35:00,
2013-06-05 10:40:00,68.1,63.1,30.03,SE,128,2.0,2.0,84,0.00,,,0.00,Wunderground v.1.15,2013-06-05 14:40:00,
2013-06-05 10:45:00,68.1,63.1,30.02,SSE,163,2.0,2.0,84,0.00,,,0.00,Wunderground v.1.15,2013-06-05 14:45:00,
2013-06-05 10:50:00,68.3,63.6,30.02,SE,141,2.0,2.0,85,0.00,,,0.00,Wunderground v.1.15,2013-06-05 14:50:00,
2013-06-05 10:55:00,68.7,63.7,30.01,SSE,159,2.0,2.0,84,0.00,,,0.00,Wunderground v.1.15,2013-06-05 14:55:00,
2013-06-05 11:00:00,69.0,63.6,30.01,South,180,2.0,2.0,83,0.00,,,0.00,Wunderground v.1.15,2013-06-05 15:00:00,
2013-06-05 11:05:00,69.1,63.7,30.02,South,183,2.0,5.0,83,0.00,,,0.00,Wunderground v.1.15,2013-06-05 15:05:00,
2013-06-05 11:10:00,69.4,64.0,30.01,SSW,213,3.0,3.0,83,0.00,,,0.00,Wunderground v.1.15,2013-06-05 15:10:00,
2013-06-05 11:15:00,70.0,63.9,30.02,ESE,110,2.0,3.0,81,0.00,,,0.00,Wunderground v.1.15,2013-06-05 15:15:00,
2013-06-05 11:20:00,70.2,63.7,30.02,South,170,2.0,2.0,80,0.00,,,0.00,Wunderground v.1.15,2013-06-05 15:20:00,
2013-06-05 11:25:00,70.2,63.7,30.02,South,172,2.0,2.0,80,0.00,,,0.00,Wunderground v.1.15,2013-06-05 15:25:00,
2013-06-05 11:35:00,70.5,64.0,30.01,ESE,115,2.0,2.0,80,0.00,,,0.00,Wunderground v.1.15,2013-06-05 15:35:00,
2013-06-05 11:40:00,70.5,64.4,30.01,SSE,160,2.0,2.0,81,0.00,,,0.00,Wunderground v.1.15,2013-06-05 15:40:00,
2013-06-05 11:45:00,70.5,64.0,30.01,ENE,72,2.0,3.0,80,0.00,,,0.00,Wunderground v.1.15,2013-06-05 15:45:00,
2013-06-05 11:50:00,70.7,64.6,30.01,SE,132,2.0,2.0,81,0.00,,,0.00,Wunderground v.1.15,2013-06-05 15:50:00,
2013-06-05 11:55:00,70.6,64.1,30.00,ESE,118,2.0,2.0,80,0.00,,,0.00,Wunderground v.1.15,2013-06-05 15:55:00,
2013-06-05 12:00:00,70.3,64.2,30.00,South,172,1.0,5.0,81,0.00,,,0.00,Wunderground v.1.15,2013-06-05 16:00:00,
2013-06-05 12:05:00,70.2,64.4,30.01,SE,124,2.0,5.0,82,0.00,,,0.00,Wunderground v.1.15,2013-06-05 16:05:00,
2013-06-05 12:10:00,70.1,64.0,30.01,East,96,3.0,3.0,81,0.00,,,0.00,Wunderground v.1.15,2013-06-05 16:10:00,
2013-06-05 12:15:00,70.3,64.2,30.00,South,177,3.0,3.0,81,0.00,,,0.00,Wunderground v.1.15,2013-06-05 16:15:00,
2013-06-05 12:20:00,70.7,64.2,30.00,ESE,123,3.0,3.0,80,0.00,,,0.00,Wunderground v.1.15,2013-06-05 16:20:00,
2013-06-05 12:25:00,70.8,64.3,30.00,East,88,2.0,3.0,80,0.00,,,0.00,Wunderground v.1.15,2013-06-05 16:25:00,
2013-06-05 12:30:00,70.8,64.0,30.00,ESE,104,2.0,2.0,79,0.00,,,0.00,Wunderground v.1.15,2013-06-05 16:30:00,
2013-06-05 12:35:00,70.6,63.8,30.00,South,186,2.0,3.0,79,0.00,,,0.00,Wunderground v.1.15,2013-06-05 16:35:00,
2013-06-05 12:40:00,70.7,63.5,30.00,East,96,2.0,2.0,78,0.00,,,0.00,Wunderground v.1.15,2013-06-05 16:40:00,
2013-06-05 12:45:00,70.6,63.4,30.00,SE,134,2.0,2.0,78,0.00,,,0.00,Wunderground v.1.15,2013-06-05 16:45:00,
2013-06-05 12:50:00,70.9,64.8,30.00,SE,130,2.0,4.0,81,0.00,,,0.00,Wunderground v.1.15,2013-06-05 16:50:00,
2013-06-05 12:55:00,71.7,64.8,29.99,ESE,116,2.0,4.0,79,0.00,,,0.00,Wunderground v.1.15,2013-06-05 16:55:00,
2013-06-05 13:00:00,71.7,64.1,29.99,SSE,149,3.0,5.0,77,0.00,,,0.00,Wunderground v.1.15,2013-06-05 17:00:00,
2013-06-05 13:05:00,71.5,63.9,30.00,ESE,113,3.0,5.0,77,0.00,,,0.00,Wunderground v.1.15,2013-06-05 17:05:00,
2013-06-05 13:10:00,71.3,63.7,30.00,SW,231,3.0,5.0,77,0.00,,,0.00,Wunderground v.1.15,2013-06-05 17:10:00,
2013-06-05 13:15:00,71.4,64.2,30.00,SE,136,3.0,5.0,78,0.00,,,0.00,Wunderground v.1.15,2013-06-05 17:15:00,
2013-06-05 13:20:00,71.5,64.3,30.00,SSW,211,3.0,3.0,78,0.00,,,0.00,Wunderground v.1.15,2013-06-05 17:20:00,
2013-06-05 13:25:00,72.0,64.8,29.99,SSE,165,3.0,3.0,78,0.00,,,0.00,Wunderground v.1.15,2013-06-05 17:25:00,
2013-06-05 13:30:00,72.1,64.1,29.99,ENE,70,3.0,3.0,76,0.00,,,0.00,Wunderground v.1.15,2013-06-05 17:30:00,
2013-06-05 13:35:00,72.0,64.8,29.99,SSE,156,2.0,3.0,78,0.00,,,0.00,Wunderground v.1.15,2013-06-05 17:35:00,
2013-06-05 13:40:00,72.1,64.9,29.99,SE,141,2.0,4.0,78,0.00,,,0.00,Wunderground v.1.15,2013-06-05 17:40:00,
2013-06-05 13:45:00,71.7,64.1,29.98,SE,127,3.0,4.0,77,0.00,,,0.00,Wunderground v.1.15,2013-06-05 17:45:00,
2013-06-05 13:50:00,71.8,64.9,29.98,ESE,106,3.0,3.0,79,0.00,,,0.00,Wunderground v.1.15,2013-06-05 17:50:00,
2013-06-05 13:55:00,72.0,64.4,29.98,SE,138,3.0,3.0,77,0.00,,,0.00,Wunderground v.1.15,2013-06-05 17:55:00,
2013-06-05 14:00:00,72.3,65.1,29.98,SE,145,3.0,5.0,78,0.00,,,0.00,Wunderground v.1.15,2013-06-05 18:00:00,
2013-06-05 14:05:00,72.5,64.5,29.98,South,177,4.0,5.0,76,0.00,,,0.00,Wunderground v.1.15,2013-06-05 18:05:00,
2013-06-05 14:10:00,72.8,64.4,29.97,South,172,4.0,4.0,75,0.00,,,0.00,Wunderground v.1.15,2013-06-05 18:10:00,
2013-06-05 14:15:00,72.7,64.7,29.97,South,179,3.0,6.0,76,0.00,,,0.00,Wunderground v.1.15,2013-06-05 18:15:00,
2013-06-05 14:20:00,72.5,64.5,29.96,SE,139,3.0,5.0,76,0.00,,,0.00,Wunderground v.1.15,2013-06-05 18:20:00,
2013-06-05 14:25:00,72.7,65.1,29.96,East,85,3.0,5.0,77,0.00,,,0.00,Wunderground v.1.15,2013-06-05 18:25:00,
2013-06-05 14:30:00,72.8,64.8,29.96,SSE,162,3.0,4.0,76,0.00,,,0.00,Wunderground v.1.15,2013-06-05 18:30:00,
2013-06-05 14:35:00,73.1,64.7,29.96,South,187,4.0,4.0,75,0.00,,,0.00,Wunderground v.1.15,2013-06-05 18:35:00,
2013-06-05 14:40:00,73.4,64.2,29.96,East,87,4.0,8.0,73,0.00,,,0.00,Wunderground v.1.15,2013-06-05 18:40:00,
2013-06-05 14:45:00,73.1,63.5,29.96,East,101,4.0,8.0,72,0.00,,,0.00,Wunderground v.1.15,2013-06-05 18:45:00,
2013-06-05 14:50:00,73.2,64.0,29.96,SE,145,4.0,4.0,73,0.00,,,0.00,Wunderground v.1.15,2013-06-05 18:50:00,
2013-06-05 14:55:00,73.7,64.1,29.95,East,89,3.0,4.0,72,0.00,,,0.00,Wunderground v.1.15,2013-06-05 18:55:00,
2013-06-05 15:00:00,73.5,64.7,29.95,SSE,159,3.0,4.0,74,0.00,,,0.00,Wunderground v.1.15,2013-06-05 19:00:00,
2013-06-05 15:10:00,73.4,64.6,29.95,SW,218,3.0,3.0,74,0.00,,,0.00,Wunderground v.1.15,2013-06-05 19:10:00,
2013-06-05 15:15:00,73.9,65.1,29.94,ESE,104,3.0,3.0,74,0.00,,,0.00,Wunderground v.1.15,2013-06-05 19:15:00,
2013-06-05 15:20:00,74.0,64.0,29.95,SSE,159,3.0,4.0,71,0.00,,,0.00,Wunderground v.1.15,2013-06-05 19:20:00,
2013-06-05 15:25:00,73.7,64.9,29.94,ESE,110,3.0,5.0,74,0.00,,,0.00,Wunderground v.1.15,2013-06-05 19:25:00,
2013-06-05 15:35:00,72.9,64.5,29.93,East,82,3.0,4.0,75,0.00,,,0.00,Wunderground v.1.15,2013-06-05 19:35:00,
2013-06-05 15:40:00,72.5,64.1,29.93,SE,137,3.0,3.0,75,0.00,,,0.00,Wunderground v.1.15,2013-06-05 19:40:00,
2013-06-05 15:45:00,72.2,64.2,29.93,South,184,3.0,3.0,76,0.00,,,0.00,Wunderground v.1.15,2013-06-05 19:45:00,
2013-06-05 15:55:00,71.6,63.6,29.93,SE,133,3.0,4.0,76,0.00,,,0.00,Wunderground v.1.15,2013-06-05 19:55:00,
2013-06-05 17:10:00,71.8,63.8,29.92,SSE,152,3.0,5.0,76,0.00,,,0.00,Wunderground v.1.15,2013-06-05 21:10:00,
2013-06-05 17:15:00,71.6,64.0,29.92,SW,229,4.0,5.0,77,0.00,,,0.00,Wunderground v.1.15,2013-06-05 21:15:00,
2013-06-05 17:20:00,71.8,64.2,29.92,SSE,156,4.0,5.0,77,0.00,,,0.00,Wunderground v.1.15,2013-06-05 21:20:00,
2013-06-05 17:25:00,71.8,64.2,29.92,SW,224,3.0,5.0,77,0.00,,,0.00,Wunderground v.1.15,2013-06-05 21:25:00,
2013-06-05 17:30:00,71.6,64.4,29.92,SE,132,3.0,3.0,78,0.00,,,0.00,Wunderground v.1.15,2013-06-05 21:30:00,
2013-06-05 17:35:00,71.2,64.0,29.92,ENE,77,3.0,3.0,78,0.00,,,0.00,Wunderground v.1.15,2013-06-05 21:35:00,
2013-06-05 17:40:00,71.0,63.8,29.91,ENE,65,3.0,3.0,78,0.00,,,0.00,Wunderground v.1.15,2013-06-05 21:40:00,
2013-06-05 17:45:00,71.2,64.0,29.91,SE,134,3.0,7.0,78,0.00,,,0.00,Wunderground v.1.15,2013-06-05 21:45:00,
2013-06-05 17:50:00,71.5,64.3,29.91,East,83,3.0,3.0,78,0.00,,,0.00,Wunderground v.1.15,2013-06-05 21:50:00,
2013-06-05 17:55:00,71.7,64.8,29.90,ESE,105,3.0,3.0,79,0.00,,,0.00,Wunderground v.1.15,2013-06-05 21:55:00,
2013-06-05 18:00:00,71.6,64.0,29.91,SSE,167,3.0,3.0,77,0.00,,,0.00,Wunderground v.1.15,2013-06-05 22:00:00,
2013-06-05 18:05:00,71.3,64.1,29.91,ESE,106,3.0,10.0,78,0.00,,,0.00,Wunderground v.1.15,2013-06-05 22:05:00,
2013-06-05 18:10:00,70.9,64.1,29.90,SE,143,3.0,3.0,79,0.00,,,0.00,Wunderground v.1.15,2013-06-05 22:10:00,
2013-06-05 18:15:00,70.9,64.4,29.90,SE,131,2.0,10.0,80,0.00,,,0.00,Wunderground v.1.15,2013-06-05 22:15:00,
2013-06-05 18:20:00,70.7,63.9,29.90,SSE,160,3.0,10.0,79,0.00,,,0.00,Wunderground v.1.15,2013-06-05 22:20:00,
2013-06-05 18:25:00,70.5,64.0,29.90,SSE,160,3.0,10.0,80,0.00,,,0.00,Wunderground v.1.15,2013-06-05 22:25:00,
2013-06-05 18:30:00,70.2,63.7,29.90,SE,144,2.0,10.0,80,0.00,,,0.00,Wunderground v.1.15,2013-06-05 22:30:00,
2013-06-05 18:40:00,69.7,64.3,29.91,ESE,117,3.0,10.0,83,0.00,,,0.00,Wunderground v.1.15,2013-06-05 22:40:00,
2013-06-05 18:45:00,69.4,64.0,29.91,East,100,3.0,10.0,83,0.00,,,0.00,Wunderground v.1.15,2013-06-05 22:45:00,
2013-06-05 18:50:00,69.2,64.2,29.91,SE,127,3.0,3.0,84,0.00,,,0.00,Wunderground v.1.15,2013-06-05 22:50:00,
2013-06-05 18:55:00,69.0,64.3,29.91,ESE,107,2.0,10.0,85,0.00,,,0.00,Wunderground v.1.15,2013-06-05 22:55:00,
2013-06-05 19:00:00,68.8,64.1,29.91,SE,138,2.0,2.0,85,0.00,,,0.00,Wunderground v.1.15,2013-06-05 23:00:00,
2013-06-05 19:05:00,68.6,64.2,29.91,East,98,2.0,10.0,86,0.00,,,0.00,Wunderground v.1.15,2013-06-05 23:05:00,
2013-06-05 19:10:00,68.4,64.0,29.91,SSW,207,2.0,10.0,86,0.00,,,0.00,Wunderground v.1.15,2013-06-05 23:10:00,
2013-06-05 19:15:00,68.3,63.9,29.91,East,82,3.0,10.0,86,0.00,,,0.00,Wunderground v.1.15,2013-06-05 23:15:00,
2013-06-05 19:20:00,68.1,63.8,29.91,SE,132,2.0,2.0,86,0.00,,,0.00,Wunderground v.1.15,2013-06-05 23:20:00,
2013-06-05 19:25:00,68.0,64.0,29.91,South,172,2.0,10.0,87,0.00,,,0.00,Wunderground v.1.15,2013-06-05 23:25:00,
2013-06-05 19:30:00,67.8,63.8,29.92,SW,226,2.0,10.0,87,0.00,,,0.00,Wunderground v.1.15,2013-06-05 23:30:00,
2013-06-05 19:40:00,67.6,63.6,29.92,SSW,207,2.0,10.0,87,0.00,,,0.00,Wunderground v.1.15,2013-06-05 23:40:00,
2013-06-05 19:45:00,67.5,63.8,29.92,SSW,195,3.0,10.0,88,0.00,,,0.00,Wunderground v.1.15,2013-06-05 23:45:00,
2013-06-05 19:50:00,67.4,63.7,29.92,SE,134,3.0,10.0,88,0.00,,,0.00,Wunderground v.1.15,2013-06-05 23:50:00,
2013-06-05 19:55:00,67.3,63.6,29.92,South,181,3.0,10.0,88,0.00,,,0.00,Wunderground v.1.15,2013-06-05 23:55:00,
2013-06-05 20:00:00,67.2,63.5,29.91,SSE,152,3.0,3.0,88,0.00,,,0.00,Wunderground v.1.15,2013-06-06 00:00:00,
2013-06-05 20:05:00,67.0,63.3,29.91,SE,143,2.0,10.0,88,0.00,,,0.00,Wunderground v.1.15,2013-06-06 00:05:00,
2013-06-05 20:15:00,67.0,63.6,29.92,East,85,2.0,3.0,89,0.00,,,0.00,Wunderground v.1.15,2013-06-06 00:15:00,
2013-06-05 20:20:00,66.8,63.5,29.92,South,173,3.0,10.0,89,0.00,,,0.00,Wunderground v.1.15,2013-06-06 00:20:00,
2013-06-05 20:25:00,66.6,63.6,29.92,SE,132,3.0,10.0,90,0.00,,,0.00,Wunderground v.1.15,2013-06-06 00:25:00,
2013-06-05 20:30:00,66.3,63.6,29.93,East,98,3.0,10.0,91,0.00,,,0.01,Wunderground v.1.15,2013-06-06 00:30:00,
2013-06-05 20:35:00,66.1,63.7,29.93,SE,134,2.0,10.0,92,0.26,,,0.03,Wunderground v.1.15,2013-06-06 00:35:00,
2013-06-05 20:40:00,65.8,63.7,29.93,SSE,152,2.0,10.0,93,0.22,,,0.06,Wunderground v.1.15,2013-06-06 00:40:00,
2013-06-05 20:45:00,65.2,63.1,29.93,SSW,200,3.0,10.0,93,0.43,,,0.09,Wunderground v.1.15,2013-06-06 00:45:00,
2013-06-05 20:50:00,64.7,62.6,29.93,SE,128,3.0,10.0,93,0.33,,,0.13,Wunderground v.1.15,2013-06-06 00:50:00,
2013-06-05 20:55:00,64.4,62.6,29.94,SSW,212,3.0,10.0,94,0.41,,,0.16,Wunderground v.1.15,2013-06-06 00:55:00,
2013-06-05 21:00:00,64.2,62.4,29.94,East,91,3.0,10.0,94,0.25,,,0.18,Wunderground v.1.15,2013-06-06 01:00:00,
2013-06-05 21:05:00,63.8,62.0,29.94,West,271,4.0,10.0,94,0.20,,,0.19,Wunderground v.1.15,2013-06-06 01:05:00,
2013-06-05 21:15:00,63.3,61.5,29.95,ENE,64,4.0,10.0,94,0.14,,,0.22,Wunderground v.1.15,2013-06-06 01:15:00,
2013-06-05 21:20:00,63.0,61.2,29.94,ENE,58,4.0,4.0,94,0.13,,,0.23,Wunderground v.1.15,2013-06-06 01:20:00,
2013-06-05 21:25:00,62.8,61.0,29.94,East,98,3.0,10.0,94,0.12,,,0.24,Wunderground v.1.15,2013-06-06 01:25:00,
2013-06-05 21:30:00,62.6,61.1,29.94,SE,130,3.0,3.0,95,0.06,,,0.24,Wunderground v.1.15,2013-06-06 01:30:00,
2013-06-05 21:35:00,62.5,61.0,29.94,SE,131,3.0,5.0,95,0.06,,,0.25,Wunderground v.1.15,2013-06-06 01:35:00,
2013-06-05 21:40:00,62.3,60.8,29.94,SE,141,3.0,3.0,95,0.08,,,0.26,Wunderground v.1.15,2013-06-06 01:40:00,
2013-06-05 21:45:00,62.0,60.6,29.94,SE,134,3.0,10.0,95,0.08,,,0.26,Wunderground v.1.15,2013-06-06 01:45:00,
2013-06-05 21:50:00,61.9,60.5,29.94,SSW,212,3.0,10.0,95,0.26,,,0.29,Wunderground v.1.15,2013-06-06 01:50:00,
2013-06-05 21:55:00,61.8,60.4,29.95,SSE,155,3.0,10.0,95,0.11,,,0.29,Wunderground v.1.15,2013-06-06 01:55:00,
2013-06-05 22:00:00,61.7,60.3,29.95,SE,127,2.0,2.0,95,0.06,,,0.29,Wunderground v.1.15,2013-06-06 02:00:00,
2013-06-05 22:05:00,61.6,60.2,29.95,SE,124,2.0,10.0,95,0.04,,,0.29,Wunderground v.1.15,2013-06-06 02:05:00,
2013-06-05 22:10:00,61.6,60.2,29.95,ESE,110,2.0,10.0,95,0.00,,,0.29,Wunderground v.1.15,2013-06-06 02:10:00,
2013-06-05 22:15:00,61.6,60.2,29.96,SE,129,1.0,10.0,95,0.00,,,0.29,Wunderground v.1.15,2013-06-06 02:15:00,
2013-06-05 22:20:00,61.6,60.2,29.95,SSE,159,1.0,10.0,95,0.00,,,0.29,Wunderground v.1.15,2013-06-06 02:20:00,
2013-06-05 22:25:00,61.6,60.2,29.95,SE,124,1.0,10.0,95,0.00,,,0.29,Wunderground v.1.15,2013-06-06 02:25:00,
2013-06-05 22:30:00,61.7,60.5,29.95,SSE,152,0.0,10.0,96,0.00,,,0.29,Wunderground v.1.15,2013-06-06 02:30:00,
2013-06-05 22:35:00,61.7,60.5,29.96,SE,128,0.0,10.0,96,0.00,,,0.29,Wunderground v.1.15,2013-06-06 02:35:00,
2013-06-05 22:40:00,61.7,60.5,29.96,SSW,193,0.0,10.0,96,0.00,,,0.29,Wunderground v.1.15,2013-06-06 02:40:00,
2013-06-05 22:45:00,61.8,60.6,29.96,ESE,114,0.0,10.0,96,0.00,,,0.29,Wunderground v.1.15,2013-06-06 02:45:00,
2013-06-05 22:50:00,61.8,60.6,29.96,SE,133,0.0,10.0,96,0.00,,,0.29,Wunderground v.1.15,2013-06-06 02:50:00,
2013-06-05 22:55:00,61.9,60.7,29.96,SE,132,0.0,10.0,96,0.00,,,0.29,Wunderground v.1.15,2013-06-06 02:55:00,
2013-06-05 23:00:00,61.9,60.7,29.95,SE,126,0.0,10.0,96,0.00,,,0.29,Wunderground v.1.15,2013-06-06 03:00:00,
2013-06-05 23:05:00,62.0,60.8,29.95,SE,125,0.0,10.0,96,0.00,,,0.30,Wunderground v.1.15,2013-06-06 03:05:00,
2013-06-05 23:10:00,62.1,60.9,29.96,SSE,149,0.0,10.0,96,0.00,,,0.30,Wunderground v.1.15,2013-06-06 03:10:00,
2013-06-05 23:15:00,62.1,60.9,29.96,SSE,151,0.0,10.0,96,0.00,,,0.30,Wunderground v.1.15,2013-06-06 03:15:00,
2013-06-05 23:20:00,62.1,60.9,29.96,SSE,150,0.0,10.0,96,0.00,,,0.30,Wunderground v.1.15,2013-06-06 03:20:00,
2013-06-05 23:25:00,62.1,60.9,29.95,SSE,149,0.0,10.0,96,0.00,,,0.30,Wunderground v.1.15,2013-06-06 03:25:00,
2013-06-05 23:30:00,62.2,61.0,29.95,SSE,149,0.0,10.0,96,0.00,,,0.30,Wunderground v.1.15,2013-06-06 03:30:00,
2013-06-05 23:35:00,62.2,61.0,29.95,SSE,149,0.0,10.0,96,0.00,,,0.30,Wunderground v.1.15,2013-06-06 03:35:00,
2013-06-05 23:45:00,62.3,61.1,29.94,SSE,149,0.0,10.0,96,0.00,,,0.30,Wunderground v.1.15,2013-06-06 03:45:00,
2013-06-05 23:55:00,62.4,61.2,29.94,SSE,154,0.0,10.0,96,0.00,,,0.30,Wunderground v.1.15,2013-06-06 03:55:00,